Content
SEND FEEDBACK

Australia Flag

BARMARYEE, QUEENSLAND


Home > Oceania > Australia > Queensland
Elevation: 246 feet     Latitude: 23 06S     Longitude: 150 43E

WEATHER
 
SELECT A DAY
Number of Records: 322,642;   Date Range: 2/21/97 - 3/22/16
 
SHARE

PRINT THIS DATA

[ ← Previous Day ]
WEATHER ALMANAC - FEBRUARY 1, 2013
[ Next Day → ]
[ °C ]   °F
Weather ElementAverageHighLow
Temperature82 °F91.4 °F (2:00 pm)75 °F (4:00 am)
Dewpoint69.9 °F72 °F (7:00 am)66 °F (1:00 pm)
Humidity66.5 %89 % (3:00 am)37 % (1:00 pm)
Barometer29.74 in29.83 in (12:00 am)29.65 in (4:00 pm)
Wind Speed6.5 mph13.8 mph (5:30 pm)
Weather ElementAverage
Visibility8.7 mi
Wind DirectionESE (113.4 °)

Weather ElementTotal
Precipitation---
Cooling Degree Days18.2 (Base 65)
Growing Degree Days33.2 (Base 50)
Averaged from 63 records on February 1, 2013
WEATHER CONDITIONS BREAKOUT
WIND DIRECTION BREAKOUT
WEATHER BY HOUR - FEBRUARY 1, 2013
[ °C ]   °F
Local TimeTemperatureDewpointHumidityBarometerVisibilityWind DirectionWind SpeedGust SpeedPrecipitationEventsConditions
12:00 AM77.0 °F69.8 °F78 %29.83 in6.2 miENE (60°)2.3 mph
12:30 AM77.0 °F69.8 °F78 %29.80 in6.2 miCalm
1:00 AM76.0 °F69.0 °F75 %29.81 inCalm
1:00 AM77.0 °F69.8 °F78 %29.80 in6.2 miCalm
1:30 AM75.2 °F69.8 °F83 %29.77 in6.2 miCalm
2:00 AM75.2 °F69.8 °F83 %29.77 in6.2 miENE (60°)3.5 mph
2:30 AM75.2 °F69.8 °F83 %29.77 in6.2 miSE (140°)1.2 mph
3:00 AM75.2 °F71.6 °F89 %29.77 in6.2 miSSE (150°)3.5 mph
3:00 AM76.0 °F71.0 °F79 %29.78 inSSE (150°)3.5 mph
3:30 AM75.2 °F71.6 °F89 %29.77 in6.2 miSE (130°)3.5 mph
4:00 AM75.0 °F71.0 °F84 %29.78 inSE (130°)3.5 mph
4:00 AM75.2 °F71.6 °F89 %29.77 in6.2 miSE (130°)3.5 mph
4:30 AM75.2 °F71.6 °F89 %29.77 in6.2 miSE (130°)4.6 mph
5:00 AM75.2 °F71.6 °F89 %29.77 in6.2 miSSE (150°)3.5 mph
5:30 AM75.2 °F71.6 °F89 %29.77 in6.2 miSE (140°)4.6 mph
6:00 AM75.2 °F71.6 °F89 %29.77 in6.2 miSE (130°)4.6 mphPartly Cloudy
6:00 AM75.0 °F71.0 °F85 %29.79 in25.0 miSE (140°)4.6 mphPartly Cloudy
6:30 AM77.0 °F71.6 °F83 %29.80 in6.2 miESE (120°)4.6 mphPartly Cloudy
7:00 AM79.0 °F72.0 °F74 %29.81 inESE (120°)5.8 mph
7:00 AM78.8 °F71.6 °F78 %29.80 in6.2 miESE (120°)5.8 mphPartly Cloudy
7:30 AM80.6 °F71.6 °F74 %29.80 in6.2 miEast (100°)3.5 mphPartly Cloudy
8:00 AM82.4 °F71.6 °F70 %29.80 in6.2 miESE (110°)3.5 mphPartly Cloudy
8:30 AM80.6 °F71.6 °F74 %29.80 in6.2 miWNW (290°)3.5 mphPartly Cloudy
9:00 AM80.6 °F71.6 °F74 %29.80 in6.2 miWNW (290°)6.9 mphScattered Clouds
9:00 AM81.0 °F71.0 °F64 %29.82 in25.0 miWNW (290°)6.9 mphPartly Cloudy
9:30 AM84.2 °F69.8 °F62 %29.80 in6.2 miWest (270°)5.8 mphScattered Clouds
10:00 AM84.0 °F70.0 °F55 %29.81 inWNW (290°)8.1 mph
10:00 AM84.2 °F69.8 °F62 %29.80 in6.2 miWNW (290°)8.1 mphPartly Cloudy
10:30 AM86.0 °F69.8 °F58 %29.80 in6.2 miNW (310°)8.1 mphScattered Clouds
11:00 AM86.0 °F68.0 °F55 %29.80 in6.2 miNNW (330°)5.8 mphPartly Cloudy
11:30 AM87.8 °F68.0 °F52 %29.77 in6.2 miNNE (30°)6.9 mphPartly Cloudy
12:00 PM87.8 °F68.0 °F52 %29.77 in6.2 miNorth (10°)4.6 mphPartly Cloudy
12:00 PM89.0 °F67.0 °F39 %29.77 in25.0 miNorth (10°)4.6 mphPartly Cloudy
12:30 PM89.6 °F68.0 °F49 %29.74 in6.2 miNNW (330°)5.8 mphPartly Cloudy
1:00 PM89.0 °F66.0 °F37 %29.74 inNNW (340°)6.9 mph
1:00 PM89.6 °F66.2 °F46 %29.74 in6.2 miNNW (340°)6.9 mphPartly Cloudy
1:30 PM89.6 °F66.2 °F46 %29.71 inNNW (340°)5.8 mphClear
2:00 PM91.4 °F69.8 °F49 %29.71 inNNE (30°)6.9 mphClear
2:30 PM91.4 °F68.0 °F46 %29.68 inNorth (350°)5.8 mphClear
3:00 PM89.6 °F69.8 °F52 %29.68 in6.2 miENE (70°)6.9 mphMostly Cloudy
3:00 PM90.0 °F70.0 °F43 %29.69 in25.0 miENE (70°)6.9 mphPartly Cloudy
3:30 PM89.6 °F69.8 °F52 %29.68 in6.2 miNNE (30°)8.1 mphMostly Cloudy
4:00 PM90.0 °F69.0 °F41 %29.68 inNE (50°)5.8 mph
4:00 PM89.6 °F69.8 °F52 %29.65 in6.2 miNE (50°)5.8 mphMostly Cloudy
4:30 PM89.6 °F71.6 °F55 %29.65 in6.2 miNNE (30°)11.5 mphMostly Cloudy
5:00 PM89.6 °F69.8 °F52 %29.65 in6.2 miNNE (20°)12.7 mphMostly Cloudy
5:30 PM86.0 °F69.8 °F58 %29.65 in6.2 miNNE (20°)13.8 mphScattered Clouds
6:00 PM86.0 °F69.8 °F58 %29.65 in6.2 miNNE (30°)13.8 mphPartly Cloudy
6:00 PM85.0 °F71.0 °F53 %29.66 in25.0 miNNE (30°)13.8 mphPartly Cloudy
6:30 PM84.2 °F69.8 °F62 %29.65 in6.2 miNNE (30°)13.8 mphPartly Cloudy
7:00 PM83.0 °F70.0 °F56 %29.68 inNNE (30°)12.7 mph
7:00 PM82.4 °F69.8 °F66 %29.68 in6.2 miNNE (30°)12.7 mphPartly Cloudy
7:30 PM82.4 °F68.0 °F62 %29.68 in6.2 miNNE (20°)10.4 mphPartly Cloudy
8:00 PM80.6 °F69.8 °F70 %29.68 inNNE (30°)10.4 mphClear
8:30 PM80.6 °F69.8 °F70 %29.71 inNNE (30°)11.5 mphClear
9:00 PM80.6 °F69.8 °F70 %29.71 inNNE (20°)8.1 mphClear
9:00 PM80.0 °F69.0 °F62 %29.72 in25.0 miNNE (20°)8.1 mphPartly Cloudy
9:30 PM80.6 °F68.0 °F65 %29.74 inNorth (10°)6.9 mphClear
10:00 PM79.0 °F69.0 °F65 %29.75 inNorth (10°)6.9 mph
10:00 PM78.8 °F69.8 °F74 %29.74 inNorth (10°)6.9 mphClear
10:30 PM78.8 °F69.8 °F74 %29.74 inNNE (20°)8.1 mphClear
11:00 PM78.8 °F69.8 °F74 %29.74 in6.2 miNorth (10°)6.9 mph
11:30 PM78.8 °F71.6 °F78 %29.71 in6.2 miNorth (10°)6.9 mph
Hourly data recorded from YBRK, located miles away from Barmaryee, Queensland




STORIES FROM OUR PARTNERS